Time,TemperatureF,DewpointF,PressureIn,WindDirection,WindDirectionDegrees,WindSpeedMPH,WindSpeedGustMPH,Humidity,HourlyPrecipIn,Conditions,Clouds,dailyrainin,SoftwareType,DateUTC
2013-03-27 00:00:00,41.2,34.2,30.08,West,281,2.0,3.0,76,0.00,,,0.00,VWS V14.00,2013-03-27 04:00:00,
2013-03-27 00:01:00,41.2,34.2,30.08,West,280,0.0,3.0,76,0.00,,,0.00,VWS V14.00,2013-03-27 04:01:00,
2013-03-27 00:02:00,41.1,34.1,30.07,WNW,292,3.0,3.0,76,0.00,,,0.00,VWS V14.00,2013-03-27 04:02:00,
2013-03-27 00:07:00,41.2,33.9,30.08,NW,307,2.0,5.0,75,0.00,,,0.00,VWS V14.00,2013-03-27 04:07:00,
2013-03-27 00:12:00,41.1,33.8,30.08,WNW,299,2.0,2.0,75,0.00,,,0.00,VWS V14.00,2013-03-27 04:12:00,
2013-03-27 00:17:00,41.1,33.8,30.08,WNW,290,3.0,5.0,75,0.00,,,0.00,VWS V14.00,2013-03-27 04:17:00,
2013-03-27 00:22:00,41.1,33.8,30.08,WNW,284,4.0,4.0,75,0.00,,,0.00,VWS V14.00,2013-03-27 04:22:00,
2013-03-27 00:27:00,41.0,33.7,30.08,WNW,294,1.0,4.0,75,0.00,,,0.00,VWS V14.00,2013-03-27 04:27:00,
2013-03-27 00:33:00,40.9,33.9,30.08,WNW,294,0.0,1.0,76,0.00,,,0.00,VWS V14.00,2013-03-27 04:33:00,
2013-03-27 00:38:00,40.4,33.8,30.08,NW,310,1.0,2.0,77,0.00,,,0.00,VWS V14.00,2013-03-27 04:38:00,
2013-03-27 00:43:00,40.2,33.6,30.08,NW,310,1.0,3.0,77,0.00,,,0.00,VWS V14.00,2013-03-27 04:43:00,
2013-03-27 00:48:00,40.3,33.7,30.08,NW,306,0.0,3.0,77,0.00,,,0.00,VWS V14.00,2013-03-27 04:48:00,
2013-03-27 00:53:00,40.4,33.8,30.09,WNW,288,3.0,3.0,77,0.00,,,0.00,VWS V14.00,2013-03-27 04:53:00,
2013-03-27 00:58:00,40.5,33.9,30.08,West,281,2.0,4.0,77,0.00,,,0.00,VWS V14.00,2013-03-27 04:58:00,
2013-03-27 01:03:00,40.6,33.6,30.09,WNW,303,2.0,2.0,76,0.00,,,0.00,VWS V14.00,2013-03-27 05:03:00,
2013-03-27 01:08:00,40.6,34.0,30.09,WNW,303,0.0,2.0,77,0.00,,,0.00,VWS V14.00,2013-03-27 05:08:00,
2013-03-27 01:13:00,40.7,34.1,30.09,NW,306,0.0,2.0,77,0.00,,,0.00,VWS V14.00,2013-03-27 05:13:00,
2013-03-27 01:18:00,40.8,33.8,30.09,WNW,300,0.0,2.0,76,0.00,,,0.00,VWS V14.00,2013-03-27 05:18:00,
2013-03-27 01:23:00,40.9,33.6,30.09,NW,310,2.0,3.0,75,0.00,,,0.00,VWS V14.00,2013-03-27 05:23:00,
2013-03-27 01:28:00,41.0,34.0,30.09,NW,304,2.0,4.0,76,0.00,,,0.00,VWS V14.00,2013-03-27 05:28:00,
2013-03-27 01:33:00,40.9,33.6,30.09,WNW,294,1.0,2.0,75,0.00,,,0.00,VWS V14.00,2013-03-27 05:33:00,
2013-03-27 01:38:00,40.8,33.5,30.09,WNW,286,1.0,4.0,75,0.00,,,0.00,VWS V14.00,2013-03-27 05:38:00,
2013-03-27 01:43:00,40.6,33.6,30.09,WNW,298,2.0,3.0,76,0.00,,,0.00,VWS V14.00,2013-03-27 05:43:00,
2013-03-27 01:49:00,40.4,33.5,30.09,WNW,298,1.0,3.0,76,0.00,,,0.00,VWS V14.00,2013-03-27 05:49:00,
2013-03-27 01:54:00,40.3,33.3,30.09,NW,321,0.0,2.0,76,0.00,,,0.00,VWS V14.00,2013-03-27 05:54:00,
2013-03-27 01:59:00,40.1,33.2,30.09,NW,321,2.0,2.0,76,0.00,,,0.00,VWS V14.00,2013-03-27 05:59:00,
2013-03-27 02:04:00,39.9,33.3,30.09,NW,321,2.0,2.0,77,0.00,,,0.00,VWS V14.00,2013-03-27 06:04:00,
2013-03-27 02:09:00,39.6,33.0,30.08,NW,314,0.0,3.0,77,0.00,,,0.00,VWS V14.00,2013-03-27 06:09:00,
2013-03-27 02:14:00,39.4,33.1,30.08,NW,314,2.0,2.0,78,0.00,,,0.00,VWS V14.00,2013-03-27 06:14:00,
2013-03-27 02:19:00,39.2,32.9,30.08,NW,314,1.0,2.0,78,0.00,,,0.00,VWS V14.00,2013-03-27 06:19:00,
2013-03-27 02:24:00,39.0,32.7,30.09,NW,311,1.0,2.0,78,0.00,,,0.00,VWS V14.00,2013-03-27 06:24:00,
2013-03-27 02:29:00,38.8,32.9,30.09,NW,311,1.0,2.0,79,0.00,,,0.00,VWS V14.00,2013-03-27 06:29:00,
2013-03-27 02:34:00,38.6,32.7,30.09,NW,311,0.0,2.0,79,0.00,,,0.00,VWS V14.00,2013-03-27 06:34:00,
2013-03-27 02:39:00,38.6,32.3,30.09,NW,312,2.0,2.0,78,0.00,,,0.00,VWS V14.00,2013-03-27 06:39:00,
2013-03-27 02:45:00,38.7,32.1,30.09,NW,315,1.0,2.0,77,0.00,,,0.00,VWS V14.00,2013-03-27 06:45:00,
2013-03-27 02:50:00,38.8,32.2,30.09,NW,315,0.0,2.0,77,0.00,,,0.00,VWS V14.00,2013-03-27 06:50:00,
2013-03-27 02:55:00,38.8,32.2,30.09,NW,316,0.0,1.0,77,0.00,,,0.00,VWS V14.00,2013-03-27 06:55:00,
2013-03-27 03:00:00,38.7,32.1,30.09,NW,315,2.0,2.0,77,0.00,,,0.00,VWS V14.00,2013-03-27 07:00:00,
2013-03-27 03:05:00,38.5,31.9,30.09,NW,315,1.0,2.0,77,0.00,,,0.00,VWS V14.00,2013-03-27 07:05:00,
2013-03-27 03:10:00,38.3,32.0,30.09,NW,315,1.0,2.0,78,0.00,,,0.00,VWS V14.00,2013-03-27 07:10:00,
2013-03-27 03:15:00,38.1,31.9,30.09,NW,315,0.0,0.0,78,0.00,,,0.00,VWS V14.00,2013-03-27 07:15:00,
2013-03-27 03:20:00,37.8,31.9,30.09,WNW,299,0.0,3.0,79,0.00,,,0.00,VWS V14.00,2013-03-27 07:20:00,
2013-03-27 03:25:00,37.6,31.7,30.09,WNW,299,0.0,0.0,79,0.00,,,0.00,VWS V14.00,2013-03-27 07:25:00,
2013-03-27 03:30:00,37.4,31.8,30.09,WNW,299,1.0,2.0,80,0.00,,,0.00,VWS V14.00,2013-03-27 07:30:00,
2013-03-27 03:35:00,37.3,31.4,30.09,WNW,299,1.0,2.0,79,0.00,,,0.00,VWS V14.00,2013-03-27 07:35:00,
2013-03-27 03:41:00,37.1,31.5,30.09,WNW,299,0.0,2.0,80,0.00,,,0.00,VWS V14.00,2013-03-27 07:41:00,
2013-03-27 03:46:00,36.9,31.3,30.09,WNW,299,0.0,2.0,80,0.00,,,0.00,VWS V14.00,2013-03-27 07:46:00,
2013-03-27 03:51:00,36.8,31.2,30.09,NW,311,2.0,4.0,80,0.00,,,0.00,VWS V14.00,2013-03-27 07:51:00,
2013-03-27 03:56:00,36.7,31.1,30.09,West,281,0.0,2.0,80,0.00,,,0.00,VWS V14.00,2013-03-27 07:56:00,
2013-03-27 04:01:00,36.6,31.3,30.09,West,281,0.0,0.0,81,0.00,,,0.00,VWS V14.00,2013-03-27 08:01:00,
2013-03-27 04:06:00,36.4,31.1,30.09,West,281,0.0,1.0,81,0.00,,,0.00,VWS V14.00,2013-03-27 08:06:00,
2013-03-27 04:12:00,36.3,31.0,30.09,West,281,0.0,0.0,81,0.00,,,0.00,VWS V14.00,2013-03-27 08:12:00,
2013-03-27 04:17:00,36.3,31.0,30.09,West,281,0.0,0.0,81,0.00,,,0.00,VWS V14.00,2013-03-27 08:17:00,
2013-03-27 04:22:00,36.2,30.9,30.09,West,281,0.0,0.0,81,0.00,,,0.00,VWS V14.00,2013-03-27 08:22:00,
2013-03-27 04:27:00,36.1,31.1,30.09,West,281,0.0,0.0,82,0.00,,,0.00,VWS V14.00,2013-03-27 08:27:00,
2013-03-27 04:32:00,35.8,30.9,30.09,West,281,0.0,0.0,82,0.00,,,0.00,VWS V14.00,2013-03-27 08:32:00,
2013-03-27 04:37:00,35.3,31.0,30.09,West,281,0.0,0.0,84,0.00,,,0.00,VWS V14.00,2013-03-27 08:37:00,
2013-03-27 04:42:00,34.9,31.1,30.09,West,281,0.0,0.0,86,0.00,,,0.00,VWS V14.00,2013-03-27 08:42:00,
2013-03-27 04:47:00,34.5,31.0,30.10,West,281,0.0,0.0,87,0.00,,,0.00,VWS V14.00,2013-03-27 08:47:00,
2013-03-27 04:53:00,34.3,30.8,30.09,West,281,0.0,0.0,87,0.00,,,0.00,VWS V14.00,2013-03-27 08:53:00,
2013-03-27 04:58:00,34.0,30.8,30.10,West,281,0.0,0.0,88,0.00,,,0.00,VWS V14.00,2013-03-27 08:58:00,
2013-03-27 05:03:00,33.9,30.7,30.10,West,281,0.0,0.0,88,0.00,,,0.00,VWS V14.00,2013-03-27 09:03:00,
2013-03-27 05:08:00,33.7,30.5,30.10,West,281,0.0,0.0,88,0.00,,,0.00,VWS V14.00,2013-03-27 09:08:00,
2013-03-27 05:13:00,33.6,30.7,30.10,West,281,0.0,0.0,89,0.00,,,0.00,VWS V14.00,2013-03-27 09:13:00,
2013-03-27 05:18:00,33.5,30.6,30.10,West,281,0.0,0.0,89,0.00,,,0.00,VWS V14.00,2013-03-27 09:18:00,
2013-03-27 05:23:00,33.3,30.4,30.10,West,281,0.0,0.0,89,0.00,,,0.00,VWS V14.00,2013-03-27 09:23:00,
2013-03-27 05:28:00,33.2,30.3,30.11,West,281,0.0,2.0,89,0.00,,,0.00,VWS V14.00,2013-03-27 09:28:00,
2013-03-27 05:33:00,33.2,30.6,30.11,West,281,0.0,0.0,90,0.00,,,0.00,VWS V14.00,2013-03-27 09:33:00,
2013-03-27 05:38:00,33.7,30.5,30.11,West,281,0.0,2.0,88,0.00,,,0.00,VWS V14.00,2013-03-27 09:38:00,
2013-03-27 05:43:00,34.0,30.8,30.11,West,281,0.0,1.0,88,0.00,,,0.00,VWS V14.00,2013-03-27 09:43:00,
2013-03-27 05:48:00,34.1,30.6,30.11,West,281,0.0,1.0,87,0.00,,,0.00,VWS V14.00,2013-03-27 09:48:00,
2013-03-27 05:53:00,34.0,30.5,30.11,WNW,290,0.0,2.0,87,0.00,,,0.00,VWS V14.00,2013-03-27 09:53:00,
2013-03-27 05:58:00,34.0,30.5,30.11,WNW,290,0.0,2.0,87,0.00,,,0.00,VWS V14.00,2013-03-27 09:58:00,
2013-03-27 06:03:00,33.9,30.5,30.11,WNW,290,0.0,0.0,87,0.00,,,0.00,VWS V14.00,2013-03-27 10:03:00,
2013-03-27 06:08:00,33.8,30.4,30.11,WNW,290,0.0,0.0,87,0.00,,,0.00,VWS V14.00,2013-03-27 10:08:00,
2013-03-27 06:13:00,33.7,30.2,30.11,WNW,290,0.0,0.0,87,0.00,,,0.00,VWS V14.00,2013-03-27 10:13:00,
2013-03-27 06:19:00,33.6,30.1,30.12,WNW,290,0.0,1.0,87,0.00,,,0.00,VWS V14.00,2013-03-27 10:19:00,
2013-03-27 06:24:00,33.5,30.0,30.12,WNW,290,0.0,0.0,87,0.00,,,0.00,VWS V14.00,2013-03-27 10:24:00,
2013-03-27 06:29:00,33.4,30.2,30.12,WNW,290,0.0,0.0,88,0.00,,,0.00,VWS V14.00,2013-03-27 10:29:00,
2013-03-27 11:40:00,50.0,31.6,30.15,NNE,22,4.0,11.0,49,0.00,,,0.00,VWS V14.00,2013-03-27 15:40:00,
2013-03-27 12:01:00,50.0,31.6,30.15,NNE,22,4.0,11.0,49,0.00,,,0.00,VWS V14.00,2013-03-27 16:01:00,
2013-03-27 12:06:00,50.9,30.3,30.15,NNE,21,2.0,8.0,45,0.00,,,0.00,VWS V14.00,2013-03-27 16:06:00,
2013-03-27 12:12:00,51.4,29.1,30.15,NNW,345,2.0,5.0,42,0.00,,,0.00,VWS V14.00,2013-03-27 16:12:00,
2013-03-27 12:17:00,51.7,31.1,30.15,NNW,346,1.0,6.0,45,0.00,,,0.00,VWS V14.00,2013-03-27 16:17:00,
2013-03-27 12:22:00,52.4,30.6,30.15,NNW,333,3.0,3.0,43,0.00,,,0.00,VWS V14.00,2013-03-27 16:22:00,
2013-03-27 12:27:00,52.3,30.5,30.15,NNW,346,4.0,9.0,43,0.00,,,0.00,VWS V14.00,2013-03-27 16:27:00,
2013-03-27 12:32:00,52.2,29.8,30.15,NNW,341,2.0,4.0,42,0.00,,,0.00,VWS V14.00,2013-03-27 16:32:00,
2013-03-27 12:37:00,52.6,31.9,30.14,WNW,291,5.0,5.0,45,0.00,,,0.00,VWS V14.00,2013-03-27 16:37:00,
2013-03-27 12:42:00,53.1,30.6,30.14,NE,46,8.0,9.0,42,0.00,,,0.00,VWS V14.00,2013-03-27 16:42:00,
2013-03-27 12:47:00,53.1,30.6,30.14,NNW,337,2.0,12.0,42,0.00,,,0.00,VWS V14.00,2013-03-27 16:47:00,
2013-03-27 12:52:00,53.4,29.7,30.14,NNW,346,5.0,6.0,40,0.00,,,0.00,VWS V14.00,2013-03-27 16:52:00,
2013-03-27 12:57:00,53.5,31.0,30.14,NW,306,5.0,10.0,42,0.00,,,0.00,VWS V14.00,2013-03-27 16:57:00,
2013-03-27 13:03:00,53.9,30.1,30.13,North,5,6.0,6.0,40,0.00,,,0.00,VWS V14.00,2013-03-27 17:03:00,
2013-03-27 13:08:00,53.7,29.4,30.13,North,360,4.0,9.0,39,0.00,,,0.00,VWS V14.00,2013-03-27 17:08:00,
2013-03-27 13:13:00,54.1,29.1,30.13,NW,325,6.0,9.0,38,0.00,,,0.00,VWS V14.00,2013-03-27 17:13:00,
2013-03-27 13:18:00,54.2,29.8,30.13,North,5,2.0,9.0,39,0.00,,,0.00,VWS V14.00,2013-03-27 17:18:00,
2013-03-27 13:23:00,53.8,28.8,30.13,NNW,344,2.0,9.0,38,0.00,,,0.00,VWS V14.00,2013-03-27 17:23:00,
2013-03-27 13:28:00,54.0,29.6,30.13,North,355,2.0,9.0,39,0.00,,,0.00,VWS V14.00,2013-03-27 17:28:00,
2013-03-27 13:33:00,54.1,28.4,30.13,NNW,336,5.0,7.0,37,0.00,,,0.00,VWS V14.00,2013-03-27 17:33:00,
2013-03-27 13:38:00,54.0,29.0,30.13,NNE,24,5.0,10.0,38,0.00,,,0.00,VWS V14.00,2013-03-27 17:38:00,
2013-03-27 13:43:00,54.1,29.1,30.13,West,279,6.0,13.0,38,0.00,,,0.00,VWS V14.00,2013-03-27 17:43:00,
2013-03-27 13:48:00,53.8,29.4,30.12,NNE,12,3.0,13.0,39,0.00,,,0.00,VWS V14.00,2013-03-27 17:48:00,
2013-03-27 13:53:00,54.1,30.3,30.12,NNW,338,5.0,13.0,40,0.00,,,0.00,VWS V14.00,2013-03-27 17:53:00,
2013-03-27 13:58:00,54.4,28.0,30.12,NNE,22,7.0,13.0,36,0.00,,,0.00,VWS V14.00,2013-03-27 17:58:00,
2013-03-27 14:04:00,54.6,27.5,30.11,WNW,301,4.0,11.0,35,0.00,,,0.00,VWS V14.00,2013-03-27 18:04:00,
2013-03-27 14:09:00,54.5,28.8,30.12,North,350,5.0,11.0,37,0.00,,,0.00,VWS V14.00,2013-03-27 18:09:00,
2013-03-27 14:14:00,54.5,29.4,30.12,NW,321,4.0,7.0,38,0.00,,,0.00,VWS V14.00,2013-03-27 18:14:00,
2013-03-27 14:19:00,54.6,28.9,30.11,NNW,345,3.0,9.0,37,0.00,,,0.00,VWS V14.00,2013-03-27 18:19:00,
2013-03-27 14:24:00,55.3,29.5,30.11,NNW,329,3.0,6.0,37,0.00,,,0.00,VWS V14.00,2013-03-27 18:24:00,
2013-03-27 14:29:00,55.4,31.5,30.10,NW,317,2.0,12.0,40,0.00,,,0.00,VWS V14.00,2013-03-27 18:29:00,
2013-03-27 14:34:00,55.8,29.3,30.10,NNW,329,3.0,5.0,36,0.00,,,0.00,VWS V14.00,2013-03-27 18:34:00,
2013-03-27 14:39:00,55.7,29.9,30.10,NE,48,6.0,14.0,37,0.00,,,0.00,VWS V14.00,2013-03-27 18:39:00,
2013-03-27 14:44:00,55.8,28.6,30.10,North,5,5.0,10.0,35,0.00,,,0.00,VWS V14.00,2013-03-27 18:44:00,
2013-03-27 14:49:00,55.9,30.0,30.10,WNW,292,7.0,12.0,37,0.00,,,0.00,VWS V14.00,2013-03-27 18:49:00,
2013-03-27 14:54:00,56.0,28.8,30.10,WNW,290,10.0,13.0,35,0.00,,,0.00,VWS V14.00,2013-03-27 18:54:00,
2013-03-27 14:59:00,55.4,31.5,30.10,NW,304,7.0,19.0,40,0.00,,,0.00,VWS V14.00,2013-03-27 18:59:00,
2013-03-27 15:04:00,55.8,29.3,30.10,NNE,24,3.0,7.0,36,0.00,,,0.00,VWS V14.00,2013-03-27 19:04:00,
2013-03-27 15:10:00,55.9,28.7,30.09,NW,316,3.0,11.0,35,0.00,,,0.00,VWS V14.00,2013-03-27 19:10:00,
2013-03-27 15:15:00,56.3,28.3,30.09,North,11,3.0,6.0,34,0.00,,,0.00,VWS V14.00,2013-03-27 19:15:00,
2013-03-27 15:20:00,56.2,29.6,30.09,NNW,345,6.0,7.0,36,0.00,,,0.00,VWS V14.00,2013-03-27 19:20:00,
2013-03-27 15:25:00,56.2,28.2,30.09,North,5,5.0,10.0,34,0.00,,,0.00,VWS V14.00,2013-03-27 19:25:00,
2013-03-27 15:30:00,56.2,30.3,30.09,North,10,2.0,12.0,37,0.00,,,0.00,VWS V14.00,2013-03-27 19:30:00,
2013-03-27 15:35:00,56.4,28.4,30.09,NNE,21,3.0,9.0,34,0.00,,,0.00,VWS V14.00,2013-03-27 19:35:00,
2013-03-27 15:40:00,56.6,29.3,30.08,NE,39,6.0,9.0,35,0.00,,,0.00,VWS V14.00,2013-03-27 19:40:00,
2013-03-27 15:45:00,56.4,29.1,30.09,NNW,337,4.0,13.0,35,0.00,,,0.00,VWS V14.00,2013-03-27 19:45:00,
2013-03-27 15:50:00,55.8,27.9,30.08,NNW,331,5.0,13.0,34,0.00,,,0.00,VWS V14.00,2013-03-27 19:50:00,
2013-03-27 15:56:00,56.2,27.5,30.09,NNE,29,3.0,7.0,33,0.00,,,0.00,VWS V14.00,2013-03-27 19:56:00,
2013-03-27 16:01:00,56.6,29.3,30.09,NNE,22,1.0,12.0,35,0.00,,,0.00,VWS V14.00,2013-03-27 20:01:00,
2013-03-27 16:06:00,57.0,29.6,30.08,NNE,25,5.0,7.0,35,0.00,,,0.00,VWS V14.00,2013-03-27 20:06:00,
2013-03-27 16:11:00,56.6,29.3,30.08,NNE,22,7.0,12.0,35,0.00,,,0.00,VWS V14.00,2013-03-27 20:11:00,
2013-03-27 16:16:00,56.5,29.2,30.08,North,360,5.0,12.0,35,0.00,,,0.00,VWS V14.00,2013-03-27 20:16:00,
2013-03-27 16:21:00,56.8,29.5,30.08,North,5,5.0,5.0,35,0.00,,,0.00,VWS V14.00,2013-03-27 20:21:00,
2013-03-27 16:26:00,56.8,29.5,30.09,NNE,32,6.0,11.0,35,0.00,,,0.00,VWS V14.00,2013-03-27 20:26:00,
2013-03-27 16:32:00,56.8,29.5,30.09,NNW,332,4.0,6.0,35,0.00,,,0.00,VWS V14.00,2013-03-27 20:32:00,
2013-03-27 16:37:00,57.0,29.6,30.08,North,5,6.0,6.0,35,0.00,,,0.00,VWS V14.00,2013-03-27 20:37:00,
2013-03-27 16:42:00,57.1,29.7,30.09,North,351,4.0,4.0,35,0.00,,,0.00,VWS V14.00,2013-03-27 20:42:00,
2013-03-27 16:47:00,56.9,28.8,30.09,NNW,342,6.0,10.0,34,0.00,,,0.00,VWS V14.00,2013-03-27 20:47:00,
2013-03-27 16:52:00,56.7,29.4,30.09,NW,324,6.0,6.0,35,0.00,,,0.00,VWS V14.00,2013-03-27 20:52:00,
2013-03-27 16:57:00,56.8,29.5,30.09,North,349,3.0,7.0,35,0.00,,,0.00,VWS V14.00,2013-03-27 20:57:00,
2013-03-27 17:02:00,56.7,28.7,30.09,NNW,341,8.0,10.0,34,0.00,,,0.00,VWS V14.00,2013-03-27 21:02:00,
2013-03-27 17:07:00,56.4,29.1,30.09,North,5,5.0,13.0,35,0.00,,,0.00,VWS V14.00,2013-03-27 21:07:00,
2013-03-27 17:12:00,56.5,29.2,30.09,West,275,4.0,4.0,35,0.00,,,0.00,VWS V14.00,2013-03-27 21:12:00,
2013-03-27 17:18:00,56.4,29.8,30.09,NNE,26,1.0,5.0,36,0.00,,,0.00,VWS V14.00,2013-03-27 21:18:00,
2013-03-27 17:23:00,56.6,30.0,30.09,NNW,340,5.0,9.0,36,0.00,,,0.00,VWS V14.00,2013-03-27 21:23:00,
2013-03-27 17:28:00,56.4,29.1,30.09,WNW,283,3.0,9.0,35,0.00,,,0.00,VWS V14.00,2013-03-27 21:28:00,
2013-03-27 17:33:00,56.6,31.3,30.09,North,355,6.0,6.0,38,0.00,,,0.00,VWS V14.00,2013-03-27 21:33:00,
2013-03-27 17:38:00,56.4,30.5,30.09,North,355,2.0,10.0,37,0.00,,,0.00,VWS V14.00,2013-03-27 21:38:00,
2013-03-27 17:43:00,56.3,31.0,30.09,NNW,331,3.0,7.0,38,0.00,,,0.00,VWS V14.00,2013-03-27 21:43:00,
2013-03-27 18:20:00,56.0,28.8,30.10,NNW,338,3.0,7.0,35,0.00,,,0.00,VWS V14.00,2013-03-27 22:20:00,
2013-03-27 18:37:00,55.8,29.3,30.10,NNW,341,2.0,3.0,36,0.00,,,0.00,VWS V14.00,2013-03-27 22:37:00,
2013-03-27 18:43:00,55.8,29.3,30.10,WNW,288,2.0,2.0,36,0.00,,,0.00,VWS V14.00,2013-03-27 22:43:00,
2013-03-27 21:40:00,46.5,32.1,30.17,NE,45,0.0,0.0,57,0.00,,,0.00,VWS V14.00,2013-03-28 01:40:00,
2013-03-27 22:01:00,45.2,33.8,30.17,NE,45,0.0,0.0,64,0.00,,,0.00,VWS V14.00,2013-03-28 02:01:00,
2013-03-27 22:06:00,44.5,34.2,30.17,NE,45,0.0,0.0,67,0.00,,,0.00,VWS V14.00,2013-03-28 02:06:00,
2013-03-27 22:11:00,43.8,34.3,30.18,NE,45,0.0,0.0,69,0.00,,,0.00,VWS V14.00,2013-03-28 02:11:00,
2013-03-27 22:16:00,43.0,34.2,30.17,NE,45,0.0,0.0,71,0.00,,,0.00,VWS V14.00,2013-03-28 02:16:00,
2013-03-27 22:22:00,42.4,34.0,30.17,NE,45,0.0,0.0,72,0.00,,,0.00,VWS V14.00,2013-03-28 02:22:00,
2013-03-27 22:27:00,41.8,33.8,30.17,NE,45,0.0,0.0,73,0.00,,,0.00,VWS V14.00,2013-03-28 02:27:00,
2013-03-27 22:32:00,41.3,33.7,30.17,NE,45,0.0,0.0,74,0.00,,,0.00,VWS V14.00,2013-03-28 02:32:00,
2013-03-27 22:37:00,40.8,33.5,30.17,NE,45,0.0,0.0,75,0.00,,,0.00,VWS V14.00,2013-03-28 02:37:00,
2013-03-27 22:42:00,40.2,33.2,30.17,NE,45,0.0,0.0,76,0.00,,,0.00,VWS V14.00,2013-03-28 02:42:00,
2013-03-27 22:47:00,39.9,33.6,30.17,NE,45,0.0,0.0,78,0.00,,,0.00,VWS V14.00,2013-03-28 02:47:00,
2013-03-27 22:52:00,39.5,33.5,30.17,NE,45,0.0,0.0,79,0.00,,,0.00,VWS V14.00,2013-03-28 02:52:00,
2013-03-27 22:57:00,39.0,33.7,30.18,NE,45,0.0,0.0,81,0.00,,,0.00,VWS V14.00,2013-03-28 02:57:00,
2013-03-27 23:03:00,38.5,33.2,30.17,NE,45,0.0,0.0,81,0.00,,,0.00,VWS V14.00,2013-03-28 03:03:00,
2013-03-27 23:08:00,38.2,32.9,30.17,NE,45,0.0,0.0,81,0.00,,,0.00,VWS V14.00,2013-03-28 03:08:00,
2013-03-27 23:13:00,38.1,33.4,30.17,NE,45,0.0,0.0,83,0.00,,,0.00,VWS V14.00,2013-03-28 03:13:00,
2013-03-27 23:18:00,37.9,33.2,30.17,NE,45,0.0,0.0,83,0.00,,,0.00,VWS V14.00,2013-03-28 03:18:00,
2013-03-27 23:23:00,37.7,33.3,30.17,NE,45,0.0,0.0,84,0.00,,,0.00,VWS V14.00,2013-03-28 03:23:00,
2013-03-27 23:28:00,37.5,33.4,30.17,NE,45,0.0,0.0,85,0.00,,,0.00,VWS V14.00,2013-03-28 03:28:00,
2013-03-27 23:33:00,37.2,33.1,30.17,NE,45,0.0,0.0,85,0.00,,,0.00,VWS V14.00,2013-03-28 03:33:00,
2013-03-27 23:38:00,36.9,32.8,30.18,NE,45,0.0,0.0,85,0.00,,,0.00,VWS V14.00,2013-03-28 03:38:00,
2013-03-27 23:43:00,36.7,32.6,30.17,NE,45,0.0,0.0,85,0.00,,,0.00,VWS V14.00,2013-03-28 03:43:00,
2013-03-27 23:48:00,36.6,32.5,30.17,NE,45,0.0,0.0,85,0.00,,,0.00,VWS V14.00,2013-03-28 03:48:00,
2013-03-27 23:53:00,36.4,32.6,30.17,NE,45,0.0,0.0,86,0.00,,,0.00,VWS V14.00,2013-03-28 03:53:00,
2013-03-27 23:58:00,36.2,32.4,30.17,NE,45,0.0,0.0,86,0.00,,,0.00,VWS V14.00,2013-03-28 03:58:00,